If you wish to contribute or participate in the discussions about articles you are invited to join SKYbrary as a registered user

 Actions

Almirante Padilla Airport

From SKYbrary Wiki

SKRH
Airport
ICAO: SKRH – IATA: RCH
Summary
Name Almirante Padilla Airport
Region South America and Caribbean
Territory Colombia CO.gif
Location Riohacha, Guajira Department
Serving Riohacha
Elevation 13.106 m
43 ft13.106 m
Coordinates 11° 31' 42.96" N, 72° 55' 9.02" W
Runways
Designator Length Width Surface ROPS
9/27 1650 m5,413.386 ft
30 m98.425 ft
ASP /
10/28 0 m0 ft
0 m0 ft
UNK yes/yes


METAR
Observation SKRH 201700Z 12012G22KT 9999 FEW02037/22 A2983
Station Riohacha / Almirante Padilla
Date/Time 20 August 2019 17:00:00
Wind direction 120°
Wind speed 12 kts
Lowest cloud amount few clouds
Temperature °C
Dew point 0°C
Humidity %
QNH hPa
Weather condition n/a

Almirante Padilla Airport is an airport serving the Caribbean coastal city of Riohacha in the Guajira Department of Colombia. The airport is on the southwestern edge of the city.

Climatology

Semi-arid climate (Köppen climate classification BSh)

Maps

Terrain

Loading map...

Airport Layout

Loading map...


Accidents & Serious Incidents at or in vicinity of SKRH

None on SKYbrary